N5GMJ Weather Reports


time (UTC)temp
F
wind
direction
speed
knots
gust
knots
rain 1hr
in
rain 24hr
in
rain mn
in
humidity
%
barometer
mb
20260509222545 87 155 0.9 6.1 0.00 0.00 0.00 49 1009.0
20260509222041 87 153 0.9 3.5 0.00 0.00 0.00 49 1009.0
20260509221537 88 163 1.7 3.5 0.00 0.00 0.00 48 1009.2
20260509221033 88 157 1.7 5.2 0.00 0.00 0.00 46 1009.1
20260509220529 87 130 0.0 2.6 0.00 0.00 0.00 49 1009.0
20260509220026 87 197 3.5 6.1 0.00 0.00 0.00 50 1009.1
20260509215521 87 137 2.6 5.2 0.00 0.00 0.00 49 1009.2
20260509215019 87 141 1.7 3.5 0.00 0.00 0.00 47 1009.3
20260509214516 87 136 0.0 1.7 0.00 0.00 0.00 47 1009.2
20260509214013 87 135 3.5 5.2 0.00 0.00 0.00 49 1009.3
20260509213509 88 156 5.2 6.1 0.00 0.00 0.00 48 1009.4
20260509213006 88 9 0.0 1.7 0.00 0.00 0.00 50 1009.3
20260509212503 87 134 3.5 5.2 0.00 0.00 0.00 50 1009.4
20260509211959 87 172 3.5 5.2 0.00 0.00 0.00 49 1009.4
20260509211455 87 117 1.7 3.5 0.00 0.00 0.00 49 1009.5
20260509210952 88 161 3.5 3.5 0.00 0.00 0.00 49 1009.5
20260509210449 88 191 2.6 5.2 0.00 0.00 0.00 49 1009.7
20260509205944 88 229 2.6 2.6 0.00 0.00 0.00 49 1009.7
20260509205439 87 170 3.5 5.2 0.00 0.00 0.00 50 1009.8
20260509204935 87 173 2.6 5.2 0.00 0.00 0.00 49 1009.9
20260509204431 87 135 3.5 6.1 0.00 0.00 0.00 47 1010.0
20260509203928 88 102 4.3 5.2 0.00 0.00 0.00 49 1010.0
20260509203424 89 0 0.9 3.5 0.00 0.00 0.00 48 1010.0
20260509202922 89 356 1.7 2.6 0.00 0.00 0.00 45 1010.0
20260509202417 88 281 0.9 2.6 0.00 0.00 0.00 48 1010.2
20260509201913 87 274 1.7 3.5 0.00 0.00 0.00 43 1010.4
20260509201408 87 299 3.5 3.5 0.00 0.00 0.00 44 1010.2
20260509200906 87 308 2.6 3.5 0.00 0.00 0.00 45 1010.1
20260509200405 88 63 2.6 3.5 0.00 0.00 0.00 46 1010.3
20260509195902 88 294 0.9 2.6 0.00 0.00 0.00 50 1010.5
20260509195402 88 107 0.9 3.5 0.00 0.00 0.00 46 1010.4
20260509194902 88 85 0.9 3.5 0.00 0.00 0.00 45 1010.3
20260509194359 87 119 0.9 1.7 0.00 0.00 0.00 45 1010.6
20260509193855 87 314 2.6 3.5 0.00 0.00 0.00 47 1010.8
20260509193355 86 268 1.7 2.6 0.00 0.00 0.00 47 1010.7
20260509192852 86 303 2.6 3.5 0.00 0.00 0.00 49 1011.0
20260509192348 87 324 2.6 2.6 0.00 0.00 0.00 47 1011.0
20260509191843 88 47 0.9 1.7 0.00 0.00 0.00 50 1010.8
20260509191339 87 357 1.7 3.5 0.00 0.00 0.00 44 1010.8
20260509190836 85 328 1.7 5.2 0.00 0.00 0.00 49 1010.9
20260509190332 85 317 2.6 2.6 0.00 0.00 0.00 49 1010.9
20260509185830 84 296 2.6 2.6 0.00 0.00 0.00 51 1011.0
20260509185326 85 304 1.7 5.2 0.00 0.00 0.00 52 1011.1
20260509184824 86 281 0.9 1.7 0.00 0.00 0.00 52 1011.4
20260509184321 86 28 0.9 1.7 0.00 0.00 0.00 50 1011.1
20260509183818 86 87 0.9 1.7 0.00 0.00 0.00 49 1011.4
20260509183313 85 113 0.9 2.6 0.00 0.00 0.00 51 1011.4
20260509182809 86 18 0.0 1.7 0.00 0.00 0.00 50 1011.5
20260509182307 84 0 0.0 2.6 0.00 0.00 0.00 51 1011.7
20260509181803 84 275 0.9 5.2 0.00 0.00 0.00 51 1011.7
20260509181300 85 12 0.9 6.1 0.00 0.00 0.00 54 1011.7
20260509180758 84 321 1.7 3.5 0.00 0.00 0.00 52 1011.8
20260509180254 84 268 1.7 2.6 0.00 0.00 0.00 52 1011.7
20260509175750 83 309 5.2 7.0 0.00 0.00 0.00 53 1011.8
20260509175247 83 310 0.9 1.7 0.00 0.00 0.00 54 1011.7
20260509174743 83 316 1.7 3.5 0.00 0.00 0.00 57 1011.8
20260509174238 83 320 3.5 5.2 0.00 0.00 0.00 55 1011.7
20260509173735 83 300 0.0 0.9 0.00 0.00 0.00 56 1011.8
20260509173230 83 299 1.7 2.6 0.00 0.00 0.00 56 1011.9
20260509172727 81 319 3.5 6.1 0.00 0.00 0.00 56 1012.1
20260509172223 82 271 4.3 7.0 0.00 0.00 0.00 56 1011.9
20260509171718 81 280 1.7 5.2 0.00 0.00 0.00 57 1011.9
20260509171215 81 315 1.7 3.5 0.00 0.00 0.00 59 1012.1
20260509170712 81 309 5.2 6.1 0.00 0.00 0.00 56 1012.1
20260509170208 80 315 3.5 8.7 0.00 0.00 0.00 58 1012.2
20260509165707 81 294 6.1 7.0 0.00 0.00 0.00 58 1012.3
20260509165202 80 352 2.6 3.5 0.00 0.00 0.00 58 1012.3
20260509164658 80 302 6.1 7.8 0.00 0.00 0.00 58 1012.4
20260509164154 80 302 3.5 7.0 0.00 0.00 0.00 57 1012.4
20260509163652 80 311 2.6 6.1 0.00 0.00 0.00 60 1012.6
20260509163147 79 289 3.5 6.1 0.00 0.00 0.00 59 1012.4
20260509162645 79 308 2.6 7.0 0.00 0.00 0.00 60 1012.4
20260509162140 78 328 3.5 6.1 0.00 0.00 0.00 62 1012.3
20260509161637 78 299 6.1 7.8 0.00 0.00 0.00 61 1012.4
20260509161132 79 307 5.2 7.8 0.00 0.00 0.00 62 1012.7
20260509160628 78 331 5.2 7.8 0.00 0.00 0.00 64 1012.5
20260509160124 78 301 2.6 8.7 0.00 0.00 0.00 64 1012.6
20260509155620 77 311 6.1 7.8 0.00 0.00 0.00 63 1012.5
20260509155116 77 311 4.3 8.7 0.00 0.00 0.00 63 1012.3
20260509154612 76 325 5.2 7.8 0.00 0.00 0.00 65 1012.3
20260509154110 76 294 5.2 7.0 0.00 0.00 0.00 65 1012.6
20260509153607 76 315 5.2 8.7 0.00 0.00 0.00 67 1012.4
20260509153104 76 307 4.3 7.0 0.00 0.00 0.00 65 1012.5
20260509152559 76 10 5.2 7.8 0.00 0.00 0.00 67 1012.2
20260509152057 76 324 5.2 6.1 0.00 0.00 0.00 66 1012.5
20260509151553 75 313 6.1 8.7 0.00 0.00 0.00 66 1012.3
20260509151051 75 301 6.1 7.0 0.00 0.00 0.00 67 1012.5
20260509150548 75 310 3.5 7.0 0.00 0.00 0.00 66 1012.6
20260509150047 75 296 4.3 7.0 0.00 0.00 0.00 67 1012.6
20260509145542 75 305 4.3 5.2 0.00 0.00 0.00 66 1012.6
20260509145037 74 297 4.3 6.1 0.00 0.00 0.00 68 1012.5
20260509144534 74 303 1.7 5.2 0.00 0.00 0.00 69 1012.6
20260509144032 73 309 3.5 7.0 0.00 0.00 0.00 71 1012.7
20260509143528 73 303 5.2 7.0 0.00 0.00 0.00 70 1012.9
20260509143026 73 294 4.3 7.8 0.00 0.00 0.00 72 1012.7
20260509142521 72 291 3.5 6.1 0.00 0.00 0.00 72 1012.8
20260509142017 72 303 3.5 6.1 0.00 0.00 0.00 73 1012.7
20260509141514 71 300 3.5 5.2 0.00 0.00 0.00 79 1012.9
20260509141011 71 270 2.6 5.2 0.00 0.00 0.00 82 1012.8
20260509140507 70 304 3.5 7.0 0.00 0.00 0.00 84 1012.7
20260509140006 70 297 4.3 7.0 0.00 0.00 0.00 83 1012.7
20260509135502 69 297 5.2 6.1 0.00 0.00 0.00 84 1012.8
20260509135000 69 295 4.3 6.1 0.00 0.00 0.00 83 1013.0
20260509134457 69 287 5.2 6.1 0.00 0.00 0.00 83 1013.0
20260509133955 68 297 3.5 6.1 0.00 0.00 0.00 84 1013.0
20260509133451 68 286 3.5 5.2 0.00 0.00 0.00 83 1013.2
20260509132949 68 310 5.2 7.0 0.00 0.00 0.00 84 1013.1
20260509132447 68 311 4.3 6.1 0.00 0.00 0.00 84 1013.1
20260509131944 67 292 3.5 5.2 0.00 0.00 0.00 84 1012.9
20260509131441 67 294 3.5 6.1 0.00 0.00 0.00 84 1013.0
20260509130937 67 278 3.5 5.2 0.00 0.00 0.00 84 1012.8
20260509130433 67 269 1.7 2.6 0.00 0.00 0.00 85 1013.0
20260509125930 67 294 2.6 5.2 0.00 0.00 0.00 85 1012.9
20260509125427 66 292 1.7 2.6 0.00 0.00 0.00 86 1012.6
20260509124923 66 312 0.9 2.6 0.00 0.00 0.00 87 1012.6
20260509124420 65 313 2.6 3.5 0.00 0.00 0.00 87 1012.6
20260509123917 65 317 2.6 2.6 0.00 0.00 0.00 87 1012.8
20260509123414 65 300 2.6 3.5 0.00 0.00 0.00 88 1012.8
20260509122910 64 308 2.6 3.5 0.00 0.00 0.00 88 1013.0
20260509122407 64 305 1.7 1.7 0.00 0.00 0.00 89 1012.6
20260509121904 64 300 0.9 1.7 0.00 0.00 0.00 89 1012.6
20260509121401 64 325 0.9 1.7 0.00 0.00 0.00 89 1012.6
20260509120859 64 309 1.7 2.6 0.00 0.00 0.00 89 1012.5
20260509120356 64 317 1.7 2.6 0.00 0.00 0.00 89 1012.4
20260509115854 64 313 0.9 1.7 0.00 0.00 0.00 88 1012.4
20260509115351 64 327 1.7 1.7 0.00 0.00 0.00 88 1012.3
20260509114849 64 325 1.7 2.6 0.00 0.00 0.00 88 1012.1
20260509114348 64 308 0.9 2.6 0.00 0.00 0.00 88 1011.9
20260509113847 64 311 0.9 1.7 0.00 0.00 0.00 87 1012.0
20260509113343 64 321 1.7 2.6 0.00 0.00 0.00 86 1011.8
20260509112839 64 314 1.7 2.6 0.00 0.00 0.00 86 1011.8
20260509112337 64 318 0.9 1.7 0.00 0.00 0.00 85 1011.4
20260509111834 65 317 1.7 2.6 0.00 0.00 0.00 83 1011.5
20260509111331 65 310 1.7 1.7 0.00 0.00 0.00 83 1011.5
20260509110829 65 307 2.6 3.5 0.00 0.00 0.00 83 1011.4
20260509110325 65 297 1.7 1.7 0.00 0.00 0.00 82 1011.4
20260509105823 66 319 0.9 1.7 0.00 0.00 0.00 80 1011.4
20260509105321 66 300 1.7 1.7 0.00 0.00 0.00 79 1011.3
20260509104817 66 312 0.9 0.9 0.00 0.00 0.00 79 1011.4
20260509104314 67 312 0.9 1.7 0.00 0.00 0.00 78 1011.5
20260509103812 67 348 0.0 2.6 0.00 0.00 0.00 79 1011.5
20260509103309 67 254 2.6 3.5 0.00 0.00 0.00 79 1011.6
20260509102808 67 308 1.7 1.7 0.00 0.00 0.00 79 1011.4
20260509102306 67 295 2.6 3.5 0.00 0.00 0.00 80 1011.9
20260509101800 68 227 0.9 1.7 0.00 0.00 0.00 80 1011.7
20260509101256 68 295 1.7 3.5 0.00 0.00 0.00 79 1011.5
20260509100754 68 302 3.5 6.1 0.00 0.00 0.00 80 1011.7
20260509100252 68 289 1.7 5.2 0.00 0.00 0.00 82 1011.7
20260509095748 68 320 0.9 1.7 0.00 0.00 0.00 81 1011.5
20260509095245 68 290 2.6 3.5 0.00 0.00 0.00 82 1012.0
20260509094742 68 254 0.9 1.7 0.00 0.00 0.00 82 1011.6
20260509094239 69 298 0.0 0.9 0.00 0.00 0.00 81 1011.0
20260509093737 69 300 0.0 0.9 0.00 0.00 0.00 80 1010.8
20260509093234 68 157 0.9 2.6 0.00 0.00 0.00 79 1010.5
20260509092732 68 310 0.9 2.6 0.00 0.00 0.00 78 1010.2
20260509092230 68 206 0.9 0.9 0.00 0.00 0.00 78 1010.0
20260509091728 69 133 0.9 2.6 0.00 0.00 0.00 76 1009.7
20260509091223 69 287 0.9 3.5 0.00 0.00 0.00 71 1009.6
20260509090721 69 118 2.6 7.0 0.00 0.00 0.00 70 1009.4
20260509090218 69 105 1.7 1.7 0.00 0.00 0.00 67 1009.1
20260509085716 70 31 0.9 1.7 0.00 0.00 0.00 65 1008.9
20260509085213 69 197 1.7 7.0 0.00 0.00 0.00 66 1008.7
20260509084710 71 40 2.6 2.6 0.00 0.00 0.00 59 1007.7
20260509084206 72 123 2.6 3.5 0.00 0.00 0.00 56 1007.6
20260509083704 71 116 0.0 1.7 0.00 0.00 0.00 57 1007.6
20260509083201 71 335 1.7 2.6 0.00 0.00 0.00 58 1007.8
20260509082658 69 261 0.9 5.2 0.00 0.00 0.00 63 1008.0
20260509082154 69 185 2.6 2.6 0.00 0.00 0.00 69 1007.8
20260509081651 70 218 0.0 0.9 0.00 0.00 0.00 68 1007.9
20260509081148 69 250 0.0 1.7 0.00 0.00 0.00 62 1008.1
20260509080646 69 190 0.0 0.9 0.00 0.00 0.00 71 1008.1
20260509080144 70 190 0.9 1.7 0.00 0.00 0.00 67 1008.4
20260509075642 69 156 0.9 1.7 0.00 0.00 0.00 71 1008.3
20260509075140 69 156 0.0 1.7 0.00 0.00 0.00 74 1008.8
20260509074636 70 172 0.9 3.5 0.00 0.00 0.00 72 1009.3
20260509074132 70 211 0.0 0.9 0.00 0.00 0.00 68 1010.0
20260509073630 71 212 0.9 1.7 0.00 0.00 0.00 64 1010.1
20260509073125 72 327 0.0 0.9 0.00 0.00 0.00 63 1010.4
20260509072623 73 307 5.2 7.0 0.00 0.00 0.00 59 1011.0
20260509072119 72 268 0.9 3.5 0.00 0.00 0.00 63 1010.9
20260509071616 70 269 1.7 5.2 0.00 0.00 0.00 68 1011.4
20260509071114 70 261 1.7 3.5 0.00 0.00 0.00 72 1011.7
20260509070611 70 246 1.7 6.1 0.00 0.00 0.00 75 1012.0
20260509070107 69 245 1.7 7.0 0.00 0.00 0.00 80 1011.8
20260509065602 69 199 2.6 6.1 0.00 0.00 0.00 83 1012.2
20260509065058 69 311 2.6 6.1 0.00 0.00 0.00 86 1012.5
20260509064556 69 247 1.7 5.2 0.00 0.00 0.00 92 1012.7
20260509064054 68 264 1.7 2.6 0.00 0.00 0.00 94 1012.8
20260509063549 68 229 1.7 2.6 0.00 0.00 0.00 94 1013.1
20260509063047 68 234 0.9 2.6 0.00 0.00 0.00 94 1012.9
20260509062544 68 252 1.7 2.6 0.00 0.00 0.00 95 1013.4
20260509062041 68 252 0.9 2.6 0.00 0.00 0.00 94 1013.3
20260509061538 68 259 1.7 5.2 0.00 0.00 0.00 94 1013.6
20260509061035 68 306 2.6 6.1 0.00 0.00 0.00 94 1013.3
20260509060533 68 299 1.7 2.6 0.00 0.00 0.00 94 1013.5
20260509060029 68 292 2.6 6.1 0.00 0.00 0.00 94 1013.5
20260509055524 68 296 3.5 6.1 0.00 0.00 0.00 94 1013.5
20260509055021 68 300 3.5 3.5 0.00 0.00 0.00 94 1013.3
20260509054517 68 284 1.7 2.6 0.00 0.00 0.00 94 1013.4
20260509054016 68 314 1.7 1.7 0.00 0.00 0.00 94 1013.2
20260509053514 68 309 0.0 0.0 0.00 0.00 0.00 94 1012.8
20260509053010 68 309 0.0 0.0 0.00 0.00 0.00 93 1012.9
20260509052508 68 302 1.7 1.7 0.00 0.00 0.00 93 1013.2
20260509052006 68 318 0.0 1.7 0.00 0.00 0.00 93 1013.2
20260509051503 69 352 3.5 6.1 0.00 0.00 0.00 94 1013.4
20260509051000 68 298 1.7 2.6 0.00 0.00 0.00 94 1013.5
20260509050456 68 39 0.9 1.7 0.00 0.00 0.00 94 1013.4
20260509045953 68 299 0.0 1.7 0.00 0.00 0.00 93 1013.5
20260509045451 69 307 0.9 0.9 0.00 0.00 0.00 92 1012.9
20260509044948 69 110 0.0 0.9 0.00 0.00 0.00 92 1012.3
20260509044445 69 117 0.9 1.7 0.00 0.00 0.00 92 1012.0
20260509043942 69 168 1.7 2.6 0.00 0.00 0.00 92 1012.0
20260509043438 69 158 1.7 2.6 0.00 0.00 0.00 92 1011.9
20260509042933 68 169 1.7 3.5 0.00 0.00 0.00 93 1011.7
20260509042431 68 166 0.9 2.6 0.00 0.00 0.00 93 1011.7
20260509041927 68 149 1.7 2.6 0.00 0.00 0.00 93 1011.7
20260509041424 68 201 0.9 2.6 0.00 0.00 0.00 93 1011.6
20260509040922 68 167 0.9 1.7 0.00 0.00 0.00 92 1011.7
20260509040420 68 165 1.7 2.6 0.00 0.00 0.00 92 1011.6
20260509035916 68 137 0.0 0.9 0.00 0.00 0.00 92 1011.7
20260509035414 69 150 0.9 1.7 0.00 0.00 0.00 91 1011.5
20260509034909 69 147 1.7 1.7 0.00 0.00 0.00 91 1011.5
20260509034408 69 156 1.7 1.7 0.00 0.00 0.00 91 1011.7
20260509033905 69 78 0.0 1.7 0.00 0.00 0.00 91 1011.8
20260509033401 69 96 0.9 0.9 0.00 0.00 0.00 91 1011.7
20260509032858 69 74 0.0 1.7 0.00 0.00 0.00 90 1011.5
20260509032355 69 105 0.0 0.9 0.00 0.00 0.00 90 1011.1
20260509031853 70 107 0.0 0.0 0.00 0.00 0.00 89 1011.1
20260509031350 70 120 1.7 3.5 0.00 0.00 0.00 89 1010.7
20260509030848 70 161 1.7 2.6 0.00 0.00 0.00 89 1010.5
20260509030345 70 192 1.7 3.5 0.00 0.00 0.00 89 1010.4
20260509025843 70 183 2.6 3.5 0.00 0.00 0.00 88 1010.5
20260509025338 70 165 3.5 5.2 0.00 0.00 0.00 88 1010.2
20260509024833 70 181 3.5 6.1 0.00 0.00 0.00 88 1010.0
20260509024330 70 168 3.5 6.1 0.00 0.00 0.00 87 1009.9
20260509023827 70 163 2.6 5.2 0.00 0.00 0.00 87 1009.7
20260509023324 70 167 6.1 7.8 0.00 0.00 0.00 87 1009.4
20260509022821 70 174 3.5 7.8 0.00 0.00 0.00 87 1009.1
20260509022318 70 136 3.5 6.1 0.00 0.00 0.00 87 1009.4
20260509021815 70 202 5.2 6.1 0.00 0.00 0.00 87 1009.4
20260509021312 70 157 3.5 8.7 0.00 0.00 0.00 87 1009.5
20260509020809 70 187 4.3 6.1 0.00 0.00 0.00 87 1009.2
20260509020308 70 172 3.5 7.8 0.00 0.00 0.00 87 1009.2
20260509015805 70 142 2.6 6.1 0.00 0.00 0.00 87 1009.0
20260509015306 70 158 4.3 6.1 0.00 0.00 0.00 87 1009.3
20260509014759 70 179 2.6 3.5 0.00 0.00 0.00 87 1009.5
20260509014256 70 166 1.7 3.5 0.00 0.00 0.00 86 1009.7
20260509013753 71 163 2.6 3.5 0.00 0.00 0.00 85 1009.8
20260509013248 71 148 0.9 1.7 0.00 0.00 0.00 85 1009.9
20260509012745 71 178 1.7 2.6 0.00 0.00 0.00 84 1009.8
20260509012242 71 147 1.7 2.6 0.00 0.00 0.00 84 1009.9
20260509011739 72 130 2.6 5.2 0.00 0.00 0.00 83 1009.8
20260509011237 72 165 2.6 6.1 0.00 0.00 0.00 83 1009.9
20260509010734 72 156 0.9 1.7 0.00 0.00 0.00 82 1010.0
20260509010231 72 161 1.7 1.7 0.00 0.00 0.00 82 1010.0
20260509005729 72 167 1.7 2.6 0.00 0.00 0.00 82 1009.7
20260509005226 72 98 0.9 1.7 0.00 0.00 0.00 82 1009.4
20260509004725 72 170 3.5 3.5 0.00 0.00 0.00 81 1009.4
20260509004223 72 193 3.5 7.8 0.00 0.00 0.00 81 1009.3
20260509003721 72 182 1.7 3.5 0.00 0.00 0.00 81 1009.0
20260509003219 72 185 7.8 9.6 0.00 0.00 0.00 80 1009.0
20260509002716 72 170 6.1 8.7 0.00 0.00 0.00 81 1009.0
20260509002213 73 167 3.5 7.8 0.00 0.00 0.00 81 1009.0
20260509001711 73 148 4.3 5.2 0.00 0.00 0.00 81 1009.1
20260509001206 73 137 3.5 6.1 0.00 0.00 0.00 80 1009.2
20260509000705 73 182 3.5 6.1 0.00 0.00 0.00 80 1009.1
20260509000204 73 188 3.5 7.0 0.00 0.00 0.00 79 1009.4
20260508235658 74 156 4.3 7.8 0.00 0.00 0.00 78 1009.2
20260508235155 74 121 3.5 6.1 0.00 0.00 0.00 77 1009.5
20260508234653 74 123 1.7 3.5 0.00 0.00 0.00 77 1009.5
20260508234149 74 219 5.2 7.0 0.00 0.00 0.00 77 1009.6
20260508233648 74 163 3.5 5.2 0.00 0.00 0.00 76 1009.7
20260508233145 74 184 4.3 7.0 0.00 0.00 0.00 77 1009.7
20260508232642 74 171 3.5 5.2 0.00 0.00 0.00 77 1009.4
20260508232139 74 133 3.5 7.0 0.00 0.00 0.00 76 1009.6
20260508231637 75 177 3.5 7.8 0.00 0.00 0.00 76 1009.5
20260508231134 74 144 2.6 5.2 0.00 0.00 0.00 76 1009.6
20260508230630 74 171 5.2 7.0 0.00 0.00 0.00 76 1009.7
20260508230127 74 142 4.3 5.2 0.00 0.00 0.00 75 1009.7
20260508225625 74 164 5.2 7.8 0.00 0.00 0.00 76 1009.7
20260508225121 74 146 2.6 7.8 0.00 0.00 0.00 76 1009.7
20260508224619 75 212 3.5 8.7 0.00 0.00 0.00 75 1009.6
20260508224116 74 147 5.2 7.8 0.00 0.00 0.00 74 1009.5
20260508223614 75 136 3.5 7.0 0.00 0.00 0.00 73 1009.8
20260508223111 76 174 1.7 5.2 0.00 0.00 0.00 74 1009.4